When you browse on this site, cookies collect data to enhance your experience and personalize the content and advertising you see.
Visit our Privacy Policy to learn more. By continuing to use the site, you agree to this use of cookies and data.
  • In Latvia
  • List of Countries
  • For 7 days
  • Water Temperature
  • Satellite Maps
  • Weather Map
  • Weather Widgets
  • user-avatar
    Login

    Hourly Weather Hasselt

    Today, 20 July, Saturday

    Time Temperature Precipitation Wind Pressure Humidity
    00:00 +19°C° 0 mm 3 mps 756 mmHg 79%
    01:00 +19°C° 0 mm 3 mps 755 mmHg 81%
    02:00 +19°C° 0 mm 3 mps 755 mmHg 83%
    03:00 +19°C° 0 mm 3 mps 754 mmHg 85%
    04:00 +20°C° 0 mm 4 mps 754 mmHg 82%
    05:00 +21°C° 0 mm 5 mps 754 mmHg 78%
    06:00 +22°C° 0 mm 4 mps 754 mmHg 70%
    07:00 +23°C° 0.2 mm 5 mps 754 mmHg 68%
    08:00 +23°C° 0.2 mm 5 mps 754 mmHg 67%
    09:00 +25°C° 0.2 mm 5 mps 754 mmHg 66%
    10:00 +26°C° 0.3 mm 5 mps 754 mmHg 63%
    11:00 +27°C° 0.3 mm 6 mps 754 mmHg 60%
    12:00 +28°C° 0 mm 5 mps 754 mmHg 58%
    13:00 +27°C° 1.5 mm 5 mps 754 mmHg 62%
    14:00 +27°C° 1.5 mm 6 mps 754 mmHg 65%
    15:00 +26°C° 1.5 mm 7 mps 754 mmHg 69%
    16:00 +26°C° 0.1 mm 6 mps 755 mmHg 68%
    17:00 +24°C° 0.1 mm 6 mps 755 mmHg 67%
    18:00 +25°C° 0.1 mm 5 mps 755 mmHg 67%
    19:00 +22°C° 0 mm 5 mps 756 mmHg 68%
    20:00 +21°C° 0 mm 4 mps 756 mmHg 69%
    21:00 +19°C° 0 mm 4 mps 757 mmHg 70%
    22:00 +18°C° 0 mm 4 mps 757 mmHg 75%
    23:00 +17°C° 0 mm 3 mps 758 mmHg 79%

    Tomorrow, 21 July, Sunday

    Time Temperature Precipitation Wind Pressure Humidity
    00:00 +17°C° 0 mm 3 mps 758 mmHg 84%
    01:00 +16°C° 0 mm 3 mps 759 mmHg 86%
    02:00 +14°C° 0 mm 3 mps 759 mmHg 89%
    03:00 +14°C° 0 mm 3 mps 759 mmHg 92%
    04:00 +16°C° 0 mm 3 mps 759 mmHg 89%
    05:00 +15°C° 0 mm 4 mps 760 mmHg 87%
    06:00 +17°C° 0 mm 4 mps 760 mmHg 85%
    07:00 +19°C° 0 mm 4 mps 761 mmHg 78%
    08:00 +20°C° 0 mm 4 mps 761 mmHg 72%
    09:00 +22°C° 0 mm 4 mps 762 mmHg 65%
    10:00 +22°C° 0 mm 4 mps 762 mmHg 62%
    11:00 +23°C° 0 mm 4 mps 762 mmHg 59%
    12:00 +23°C° 0 mm 4 mps 762 mmHg 56%
    13:00 +25°C° 0 mm 4 mps 762 mmHg 54%
    14:00 +25°C° 0 mm 3 mps 763 mmHg 51%
    15:00 +26°C° 0 mm 3 mps 763 mmHg 48%
    16:00 +25°C° 0 mm 3 mps 763 mmHg 52%
    17:00 +25°C° 0 mm 2 mps 763 mmHg 56%
    18:00 +24°C° 0 mm 2 mps 763 mmHg 60%
    19:00 +21°C° 0 mm 2 mps 763 mmHg 65%
    20:00 +20°C° 0 mm 2 mps 763 mmHg 71%
    21:00 +19°C° 0 mm 1 mps 764 mmHg 77%
    22:00 +18°C° 0 mm 1 mps 764 mmHg 78%
    23:00 +18°C° 0 mm 1 mps 764 mmHg 80%

    Day after tomorrow, 22 July, Monday

    Time Temperature Precipitation Wind Pressure Humidity
    00:00 +18°C° 0 mm 1 mps 764 mmHg 81%
    01:00 +16°C° 0 mm 1 mps 764 mmHg 81%
    02:00 +16°C° 0 mm 2 mps 764 mmHg 81%
    03:00 +16°C° 0 mm 2 mps 764 mmHg 81%
    04:00 +17°C° 0 mm 2 mps 764 mmHg 79%
    05:00 +18°C° 0 mm 2 mps 764 mmHg 76%
    06:00 +19°C° 0 mm 2 mps 764 mmHg 73%
    07:00 +20°C° 0 mm 2 mps 764 mmHg 68%
    08:00 +22°C° 0 mm 3 mps 764 mmHg 62%
    09:00 +25°C° 0 mm 3 mps 764 mmHg 56%
    10:00 +26°C° 0 mm 3 mps 764 mmHg 52%
    11:00 +27°C° 0 mm 3 mps 764 mmHg 48%
    12:00 +28°C° 0 mm 3 mps 764 mmHg 44%
    13:00 +29°C° 0 mm 3 mps 764 mmHg 43%
    14:00 +29°C° 0 mm 2 mps 763 mmHg 41%
    15:00 +30°C° 0 mm 2 mps 763 mmHg 40%
    16:00 +29°C° 0 mm 2 mps 763 mmHg 45%
    17:00 +28°C° 0 mm 2 mps 763 mmHg 49%
    18:00 +28°C° 0 mm 1 mps 763 mmHg 54%
    19:00 +26°C° 0 mm 1 mps 763 mmHg 59%
    20:00 +24°C° 0 mm 1 mps 764 mmHg 64%
    21:00 +19°C° 0 mm 0 mps 764 mmHg 70%
    22:00 +21°C° 0 mm 1 mps 764 mmHg 72%
    23:00 +20°C° 0 mm 1 mps 763 mmHg 75%

    23 July, Tuesday

    Time Temperature Precipitation Wind Pressure Humidity
    00:00 +20°C° 0 mm 1 mps 763 mmHg 77%
    01:00 +19°C° 0 mm 1 mps 763 mmHg 77%
    02:00 +19°C° 0 mm 1 mps 763 mmHg 78%
    03:00 +19°C° 0 mm 1 mps 763 mmHg 78%
    04:00 +20°C° 0 mm 1 mps 763 mmHg 75%
    05:00 +21°C° 0 mm 1 mps 762 mmHg 72%
    06:00 +22°C° 0 mm 1 mps 762 mmHg 69%
    07:00 +24°C° 0 mm 1 mps 762 mmHg 61%
    08:00 +27°C° 0 mm 2 mps 762 mmHg 54%
    09:00 +29°C° 0 mm 2 mps 762 mmHg 47%
    10:00 +30°C° 0 mm 2 mps 761 mmHg 43%
    11:00 +31°C° 0 mm 2 mps 761 mmHg 39%
    12:00 +32°C° 0 mm 2 mps 761 mmHg 35%
    13:00 +34°C° 0 mm 2 mps 760 mmHg 34%
    14:00 +35°C° 0 mm 2 mps 760 mmHg 33%
    15:00 +35°C° 0 mm 2 mps 760 mmHg 32%
    16:00 +34°C° 0 mm 2 mps 759 mmHg 37%
    17:00 +32°C° 0 mm 2 mps 759 mmHg 43%
    18:00 +31°C° 0 mm 2 mps 759 mmHg 48%
    19:00 +29°C° 0 mm 2 mps 759 mmHg 51%
    20:00 +27°C° 0 mm 2 mps 759 mmHg 55%
    21:00 +25°C° 0 mm 2 mps 759 mmHg 58%
    22:00 +24°C° 0 mm 2 mps 759 mmHg 59%
    23:00 +24°C° 0 mm 2 mps 759 mmHg 61%

    24 July, Wednesday

    Time Temperature Precipitation Wind Pressure Humidity
    00:00 +23°C° 0 mm 2 mps 759 mmHg 62%
    01:00 +23°C° 0 mm 2 mps 758 mmHg 63%
    02:00 +23°C° 0 mm 2 mps 758 mmHg 63%
    03:00 +23°C° 0 mm 2 mps 758 mmHg 64%
    04:00 +23°C° 0 mm 2 mps 758 mmHg 64%
    05:00 +24°C° 0 mm 2 mps 758 mmHg 64%
    06:00 +25°C° 0 mm 2 mps 758 mmHg 64%
    07:00 +28°C° 0 mm 2 mps 758 mmHg 57%
    08:00 +31°C° 0 mm 2 mps 758 mmHg 50%
    09:00 +34°C° 0 mm 3 mps 758 mmHg 43%
    10:00 +35°C° 0 mm 3 mps 758 mmHg 39%
    11:00 +37°C° 0 mm 3 mps 758 mmHg 35%
    12:00 +38°C° 0 mm 3 mps 757 mmHg 31%
    13:00 +38°C° 0 mm 2 mps 757 mmHg 31%
    14:00 +39°C° 0 mm 2 mps 757 mmHg 30%
    15:00 +39°C° 0 mm 2 mps 757 mmHg 30%
    16:00 +38°C° 0 mm 2 mps 757 mmHg 35%
    17:00 +37°C° 0 mm 2 mps 757 mmHg 39%
    18:00 +36°C° 0 mm 2 mps 757 mmHg 44%
    19:00 +34°C° 0 mm 2 mps 757 mmHg 47%
    20:00 +31°C° 0 mm 2 mps 757 mmHg 51%
    21:00 +29°C° 0 mm 2 mps 757 mmHg 55%
    22:00 +28°C° 0 mm 2 mps 757 mmHg 54%
    23:00 +28°C° 0 mm 2 mps 757 mmHg 54%

    25 July, Thursday

    Time Temperature Precipitation Wind Pressure Humidity
    00:00 +27°C° 0 mm 3 mps 757 mmHg 54%
    01:00 +27°C° 0 mm 2 mps 757 mmHg 55%
    02:00 +26°C° 0 mm 2 mps 757 mmHg 57%
    03:00 +25°C° 0 mm 2 mps 756 mmHg 58%
    04:00 +26°C° 0 mm 2 mps 756 mmHg 58%
    05:00 +27°C° 0 mm 2 mps 756 mmHg 58%
    06:00 +27°C° 0 mm 2 mps 756 mmHg 58%
    07:00 +30°C° 0 mm 3 mps 756 mmHg 53%
    08:00 +33°C° 0 mm 3 mps 756 mmHg 47%
    09:00 +35°C° 0 mm 3 mps 756 mmHg 41%
    10:00 +37°C° 0 mm 3 mps 756 mmHg 37%
    11:00 +38°C° 0 mm 3 mps 755 mmHg 33%
    12:00 +39°C° 0 mm 3 mps 755 mmHg 29%
    13:00 +40°C° 0 mm 3 mps 754 mmHg 28%
    14:00 +40°C° 0 mm 3 mps 754 mmHg 28%
    15:00 +40°C° 0 mm 3 mps 754 mmHg 28%
    16:00 +39°C° 0 mm 3 mps 754 mmHg 32%
    17:00 +38°C° 0 mm 3 mps 754 mmHg 37%
    18:00 +37°C° 0 mm 3 mps 754 mmHg 42%
    19:00 +34°C° 0 mm 3 mps 754 mmHg 49%
    20:00 +30°C° 0 mm 3 mps 754 mmHg 57%
    21:00 +27°C° 0 mm 3 mps 755 mmHg 64%
    22:00 +26°C° 0 mm 3 mps 755 mmHg 72%
    23:00 +24°C° 0 mm 2 mps 755 mmHg 79%
    Show more